Regional Weather Roundup
Issued by NWS

Home | Current Version | Previous Version | Graphics & Text | Print | Product List | Glossary On
Versions: 1 2 3 4 5 6 7 8 9 10 11 12 13 14 15 16 17 18 19 20 21 22 23 24 25 26 27 28 29 30 31 32 33 34 35 36 37 38 39 40 41 42 43 44 45 46 47 48 49 50
000
ASUS45 KTFX 131919
RWRMT
MONTANA HOURLY WEATHER ROUNDUP
NATIONAL WEATHER SERVICE GREAT FALLS MT
119 PM MDT SUN JUL 13 2014

NOTE: "FAIR" INDICATES FEW OR NO CLOUDS BELOW 12000 FEET WITH NO
SIGNIFICANT WEATHER AND/OR OBSTRUCTIONS TO VISIBILITY.

* THESE STATIONS ARE NOT UNDER NWS QUALITY CONTROL. THEY DO NOT
   REPORT WEATHER SUCH AS PRECIPITATION OR FOG.

MTZ001>007-043-132000-
WEST OF THE DIVIDE
CITY           SKY/WX    TMP DP  RH WIND       PRES   REMARKS
KALISPELL      SUNNY     84  52  33 CALM      30.19F
MISSOULA       SUNNY     88  43  21 VRB3      30.19F
MULLAN PASS    SUNNY     75  43  32 VRB3      30.38S
* ESSEX        N/A       87  46  24 VRB2       N/A
* LINCOLN      N/A       85  48  28 SW3G9      N/A
* LOOKOUT PASS N/A       81  45  28 S6G11      N/A
* POLSON       N/A       85  55  36 NE3        N/A
* RONAN APT    SUNNY     82  55  40 N/A        N/A   HI  81
* SEELEY LAKE  N/A       86  43  22 NW3        N/A
* THOMP F APT  SUNNY     82  48  31 S7         N/A
* YAAK HILL    N/A       89  51  27 SW1        N/A
$$

MTZ008-052>055-132000-
SOUTHWEST MONTANA
CITY           SKY/WX    TMP DP  RH WIND       PRES   REMARKS
W YELLOWSTONE  PTCLDY    75  41  30 NE6       30.40F
* THREE FORKS  SUNNY     82  82 100 N/A        N/A   HI  95
* BOULDER HILL N/A       77  45  32 N4         N/A
* MONIDA PASS  N/A       77  39  26 NE2G11     N/A
* RAYNOLDS PAS N/A       77  45  32 E2G8       N/A
* WHITEHALL    N/A       85  53  33 SE4G9      N/A
* WISE RIVER   N/A       82  52  35 W5         N/A
$$

MTZ009>010-012-014-046-048-049-054-132000-
EAST SLOPES AND CENTRAL MONTANA
CITY           SKY/WX    TMP DP  RH WIND       PRES   REMARKS
MALMSTROM AFB  SUNNY     82  43  25 NE8       30.25F
* CONRAD       SUNNY     81  57  44 N/A        N/A   HI  81
* DEARBORN     N/A       83  46  27 N9         N/A
* EAST GLACIER N/A       77  48  36 SE5        N/A
* MONARCH      N/A       77  37  24 N4G12      N/A
* ROGERS PASS  N/A       81  44  27 S8         N/A
* SAINT MARY   N/A       83  51  33 N5G10      N/A
* SWEET GRASS  N/A       81  47  30 E7         N/A
* WHITE SULPH  N/A       84  34  17 N4G9       N/A
$$

MTZ011-013-016-021-035-040-045-047-050-051-132000-
NORTH CENTRAL MONTANA
CITY           SKY/WX    TMP DP  RH WIND       PRES   REMARKS
* FORT BENTON  SUNNY     84  43  24 CALM      30.22S
* CHESTER      N/A       86  44  23 NE3        N/A
* DENTON       N/A       86  44  23 NE7G12     N/A
* GEYSER       N/A       83  42  23 NW8        N/A
* JUDITH GAP   N/A       80  48  33 VRB14G23    N/A
* LOMA         N/A       84  45  26 NE5        N/A
$$

MTZ017>020-022>027-061-062-132000-
NORTHEAST MONTANA
CITY           SKY/WX    TMP DP  RH WIND       PRES   REMARKS
GLENDIVE       SUNNY     77  41  28 NW16G23   30.18F
JORDAN         SUNNY     84  45  26 N17       30.18S
SIDNEY         SUNNY     77  37  24 NW18G23   30.16F
* BEAVER HILL  N/A       72  35  26 NW16G24    N/A
* CIRCLE       N/A       76  51  42 NW6        N/A
* LINDSAY DVD  N/A       71  43  37 NW14       N/A
* NAVAJO       N/A       70  41  35 N19G29     N/A
$$

MTZ028>042-056>058-132000-
SOUTHCENTRAL AND SOUTHEAST MONTANA
CITY           SKY/WX    TMP DP  RH WIND       PRES   REMARKS
BILLINGS       SUNNY     86  52  31 SE9       30.22F
* LAUREL APT   SUNNY     86  48  27 E6         N/A
* ROUNDUP APT  SUNNY     86  45  24 N8         N/A
* ALZADA       N/A       82  46  28 W11        N/A
* HYSHAM       N/A       85  47  27 SE2G9      N/A
* LAME DEER    N/A       78  48  35 NE3G12     N/A
* REED POINT   N/A       90  49  24 SW2G8      N/A
* ROSCOE HILL  N/A       81  40  23 N6         N/A
$$

REGIONAL REPORTS...DAKOTAS
CITY           SKY/WX    TMP DP  RH WIND       PRES   REMARKS
WILLISTON      HAZE      75  36  24 N17G26    30.14F
DICKINSON      SUNNY     73  45  37 NW16G23   30.12F
CROSBY         SUNNY     66  41  40 NW24G31   30.12F
TIOGA          SUNNY     68  39  35 NW21G32   30.14F
WATFORD CITY   SUNNY     72  39  30 NW17G25   30.11F
BISMARCK       SUNNY     75  43  32 NW13G24   30.08F
GRAND FORKS    PTSUNNY   70  46  42 NW18G28   29.91F
FARGO          PTCLDY    75  45  34 W25G32    29.93F
BUFFALO SD     SUNNY     79  54  42 N17G26    30.10F
RAPID CITY     SUNNY     82  52  35 N14       30.16F
$$

REGIONAL REPORTS...WYOMING/IDAHO/WASHINGTON
CITY           SKY/WX    TMP DP  RH WIND       PRES   REMARKS
GILLETTE       SUNNY     84  39  20 N12G18    30.22F
CODY           SUNNY     82  45  27 NE12      30.30F
YELLOWSTONE LA SUNNY     70  43  38 SE6       30.52F
MULLAN PASS    SUNNY     75  43  32 VRB3      30.38S
SAND POINT     SUNNY     81  52  37 E3        30.14F
SPOKANE        SUNNY     90  45  21 E6        30.13F
$$

REGIONAL REPORTS...ALBERTA
CITY           SKY/WX    TMP DP  RH WIND       PRES   REMARKS
CALGARY        SUNNY     81  55  41 SE8       30.26S HI  81
LETHBRIDGE     CLOUDY    81  52  37 SE6       30.24S
MEDICINE HAT   N/A       82  52  35 NE3       30.21F
EDMONTON       N/A       77  59  54 SE12      30.24R
WATERTON GATE  N/A       79  57  47 E6         N/A
CARDSTON       N/A       81  54  39 E5         N/A
MILK RIVER     N/A       82  43  25 NE7        N/A
$$

REGIONAL REPORTS...SASKATCHEWAN
CITY           SKY/WX    TMP DP  RH WIND       PRES   REMARKS
SWIFT CURRENT  SUNNY     70  46  42 N15G21    30.21S
REGINA         N/A       68  43  40 NW23G31   30.15S
VAL MARIE      N/A       75  50  42 N13G18     N/A
ASSINIBOIA     N/A       68  39  35 N17G23     N/A
CORONACH       N/A       72  39  30 NW17G26    N/A

$$



USA.gov is the U.S. government's official web portal to all federal, state and local government web resources and services.